Kemin

Kyrgyzstan     42˚46′51″N   75˚41′07″E
temp.,
°C
wind,
m/s
gust,
m/s
humid.,
%
clouds,
%
prec.,
mm/h
press.,
hPa
HPBL,
m
28 november, sat
sat2800:00+1˚ese4461100 0.1 102360
03:00+2˚ese3463100 0.1 102248
06:00wsw1266100 0.1 102423
09:00−5˚w1398100 0.0 1026136
12:00−2˚wnw3396100 1.9 1033287
15:00−4˚w3495100 2.8 1036366
18:00−7˚e1194100 4.0 104025
21:00−8˚ne019699 0.4 104227
29 november, sun
sun2900:00−9˚se019699 0.9 104226
03:00−11˚ese1289100 0.3 104224
06:00−13˚se128295 0.3 104421
09:00−12˚ese228168 0.0 104426
12:00−7˚e227134 0.0 1041215
15:00−5˚wnw01656 0.0 1041395
18:00−10˚ese227010 0.0 104321
21:00−11˚ese23610 0.0 104322
30 november, mon
mon3000:00−11˚ese12540 0.0 104221
03:00−11˚ese12520 0.0 104221
06:00−11˚ese22530 0.0 104221
09:00−10˚ese23530 0.0 104122
12:00−4˚ene11560 0.0 1038120
15:00−5˚wnw22780 0.0 1036104
18:00−9˚e22690 0.0 103721
21:00−9˚ese12490 0.0 103721
1 december, tue
tue100:00−9˚ese12480 0.0 103621
03:00−9˚ese124960 0.0 103521
06:00−8˚ese234680 0.0 103421
09:00−7˚ese335195 0.0 103430
12:00−1˚ese346188 0.0 1031142
15:00e226593 0.0 103041
18:00−5˚se225185 0.0 103222
21:00−4˚ese2347100 0.0 103323
2 december, wed
wed200:00−4˚ese334080 0.0 103324
03:00−4˚ese344156 0.0 103327
06:00−4˚ese344751 0.0 103429
09:00−2˚ese445796 0.0 103445
12:00+2˚ese347397 0.0 103291
15:00+3˚ese227485 0.0 103032
18:00−1˚ese336292 0.0 103127
21:00−2˚ese4460100 0.0 103138